Content
SEND FEEDBACK

Daily
Averages
Monthly
Summary
United States of America

HILLSIDE, NEW JERSEY


Home > North America > United States > New Jersey
Elevation: 40 feet     Latitude: 40 40N     Longitude: 074 14W

WEATHER
 
SELECT A DAY
Number of Records: 193,165;   Date Range: 1/1/95 - 11/21/14
 
SHARE

PRINT THIS DATA

[ ← Previous Day ]
WEATHER ALMANAC - JULY 1, 2013
[ Next Day → ]
[ °C ]   °F
We're sorry. There is no daily almanac available for Hillside, New Jersey on July 1, 2013.
WEATHER BY HOUR - JULY 1, 2013
[ °C ]   °F
Local TimeTemperatureDewpointHumidityBarometerVisibilityWind DirectionWind SpeedGust SpeedPrecipitationEventsConditions
12:51 AM75.0 °F71.1 °F87 %29.91 in10.0 miSE (140°)3.5 mphOvercast
1:51 AM75.0 °F71.1 °F87 %29.91 in10.0 miSSE (150°)4.6 mphOvercast
2:51 AM75.0 °F71.1 °F87 %29.90 in10.0 miSouth (170°)5.8 mphOvercast
3:51 AM73.9 °F71.1 °F91 %29.91 in10.0 miSouth (180°)8.1 mphOvercast
3:57 AM73.4 °F71.6 °F94 %29.90 in10.0 miSouth (180°)6.9 mphOvercast
4:51 AM75.0 °F71.1 °F87 %29.91 in10.0 miSSE (160°)3.5 mphOvercast
5:51 AM75.0 °F71.1 °F87 %29.93 in10.0 miSE (140°)4.6 mphOvercast
6:51 AM75.9 °F71.1 °F85 %29.93 in9.0 miSSE (160°)4.6 mphOvercast
7:40 AM75.2 °F71.6 °F89 %29.94 in10.0 miSSE (150°)5.8 mphOvercast
7:51 AM75.9 °F72.0 °F87 %29.94 in10.0 miSSE (160°)4.6 mphOvercast
8:51 AM78.1 °F72.0 °F81 %29.94 in10.0 miSE (140°)6.9 mphOvercast
9:37 AM77.0 °F71.6 °F83 %29.92 in1.5 miSouth (180°)17.3 mph24.2 mph0.02 inRainHeavy Rain
9:44 AM73.4 °F69.8 °F88 %29.95 in1.5 miSSW (200°)15.0 mph27.6 mph0.26 inRainHeavy Rain
9:51 AM73.9 °F71.1 °F91 %29.95 in1.5 miSW (220°)19.6 mph27.6 mph0.28 inRainRain
9:53 AM73.4 °F71.6 °F94 %29.95 in1.5 miSW (230°)21.9 mph27.6 mph0.00 inRainRain
10:10 AM73.4 °F71.6 °F94 %29.96 in1.5 miSSW (210°)9.2 mph0.16 inRainHeavy Rain
10:51 AM73.0 °F72.0 °F96 %29.98 in1.5 miWest (270°)3.5 mph0.42 inRainHeavy Rain
10:59 AM73.4 °F71.6 °F94 %29.98 in1.5 miCalm0.05 inRain-ThunderstormHeavy Thunderstorms and Rain
11:13 AM73.4 °F71.6 °F94 %29.97 in1.5 miCalm0.13 inRain-ThunderstormThunderstorms and Rain
11:33 AM73.4 °F71.6 °F94 %29.96 in8.0 miCalm0.21 inRainLight Rain
11:51 AM75.0 °F73.0 °F94 %29.98 in10.0 miSE (130°)3.5 mph0.21 inMostly Cloudy
12:51 PM78.1 °F73.0 °F84 %29.98 in10.0 miSSE (150°)3.5 mph0.00 inOvercast
1:51 PM75.9 °F73.0 °F91 %29.98 in7.0 miSE (140°)6.9 mph0.01 inRainRain
2:46 PM75.2 °F73.4 °F94 %29.98 in7.0 miSSE (150°)6.9 mph0.14 inRainLight Rain
2:51 PM75.0 °F73.0 °F94 %29.98 in8.0 miSSE (150°)5.8 mph0.14 inRainLight Rain
3:51 PM77.0 °F73.0 °F88 %29.97 in9.0 miESE (110°)8.1 mph0.01 inRainLight Rain
3:54 PM77.0 °F73.4 °F89 %29.97 in9.0 miESE (120°)5.8 mph0.00 inRainLight Rain
4:51 PM77.0 °F73.9 °F90 %29.97 in10.0 miSSE (150°)5.8 mph0.00 inOvercast
5:24 PM77.0 °F73.4 °F89 %29.97 in10.0 miSSE (150°)8.1 mph0.00 inRainLight Rain
5:44 PM77.0 °F73.4 °F89 %29.97 in10.0 miSSE (150°)10.4 mph0.00 inRainLight Rain
5:51 PM75.9 °F73.0 °F91 %29.98 in10.0 miSSE (150°)5.8 mph0.00 inRainLight Rain
6:21 PM77.0 °F73.4 °F89 %29.98 in10.0 miSSE (150°)6.9 mph0.00 inMostly Cloudy
6:51 PM77.0 °F73.0 °F88 %29.99 in10.0 miSE (140°)5.8 mph0.00 inMostly Cloudy
7:51 PM77.0 °F73.0 °F88 %30.01 in10.0 miSSE (160°)8.1 mphMostly Cloudy
8:51 PM75.9 °F72.0 °F87 %30.02 in10.0 miSouth (170°)9.2 mphMostly Cloudy
9:45 PM75.2 °F71.6 °F89 %30.03 in10.0 miSouth (170°)8.1 mphMostly Cloudy
9:51 PM75.9 °F72.0 °F87 %30.03 in10.0 miSouth (170°)9.2 mphMostly Cloudy
10:51 PM75.9 °F72.0 °F87 %30.04 in10.0 miSouth (180°)8.1 mphMostly Cloudy
11:51 PM75.9 °F72.0 °F87 %30.05 in10.0 miSouth (180°)8.1 mphOvercast
Hourly data recorded from KEWR, located miles away from Hillside, New Jersey







STORIES FROM OUR PARTNERS